Bellingham, Washington, United States (98225)
Lat: 48.76N, Lon: 122.49W
Wx Zone: WAZ503
Local Info
Past Weather Observations for Thursday, April 17, 2014

NOTE: This archive is for the closest National Weather Service station to Bellingham. Information may differ from the station used for current weather conditions.

Time Weather Temperature Dewpoint Humidity Pressure Winds Precip Visibility
23:53
Overcast
46°F / 8°C 39°F / 4°C 76% 29.89 in
(1012 mb)
S 5.8 mph
(S 9 kph)
- 10SM
22:53
Overcast
45°F / 7°C 43°F / 6°C 93% 29.86 in
(1011 mb)
S 4.6 mph
(S 7 kph)
0.01 in
(0.25 mm)
10SM
22:33
Overcast
46°F / 8°C 43°F / 6°C 87% 29.83 in
(1010 mb)
SE 5.8 mph
(SE 9 kph)
0.01 in
(0.25 mm)
10SM
21:53
Overcast
Light Rain
45°F / 7°C 43°F / 6°C 93% 29.83 in
(1010 mb)
SSE 5.8 mph
(SSE 9 kph)
0.03 in
(0.76 mm)
5SM
21:48
Overcast
Light Rain
45°F / 7°C 43°F / 6°C 93% 29.83 in
(1010 mb)
SSE 5.8 mph
(SSE 9 kph)
0.03 in
(0.76 mm)
5SM
21:38
Overcast
Light Rain
45°F / 7°C 43°F / 6°C 93% 29.83 in
(1010 mb)
S 3.5 mph
(S 6 kph)
0.02 in
(0.51 mm)
5SM
21:20
Overcast
Light Rain
45°F / 7°C 43°F / 6°C 93% 29.83 in
(1010 mb)
Calm 0.01 in
(0.25 mm)
8SM
21:09
Overcast
Light Rain
45°F / 7°C 43°F / 6°C 93% 29.83 in
(1010 mb)
Calm 0.01 in
(0.25 mm)
7SM
20:53
Overcast
Light Rain
45°F / 7°C 43°F / 6°C 93% 29.8 in
(1009 mb)
Calm 0.02 in
(0.51 mm)
5SM
20:34
Overcast
Light Rain
45°F / 7°C 43°F / 6°C 93% 29.8 in
(1009 mb)
Calm 0.01 in
(0.25 mm)
6SM
20:25
Overcast
Light Rain
45°F / 7°C 43°F / 6°C 93% 29.8 in
(1009 mb)
S 3.5 mph
(S 6 kph)
0.01 in
(0.25 mm)
6SM
19:53
Overcast
Light Rain
48°F / 9°C 45°F / 7°C 87% 29.77 in
(1008 mb)
SSW 8.1 mph
(SSW 13 kph)
0.03 in
(0.76 mm)
7SM
19:02
Overcast
Light Rain
46°F / 8°C 45°F / 7°C 93% 29.71 in
(1006 mb)
S 8.1 mph
(S 13 kph)
0.03 in
(0.76 mm)
5SM
18:53
Overcast
Rain
48°F / 9°C 45°F / 7°C 87% 29.71 in
(1006 mb)
Variable 5.8 mph
(Variable 9 kph)
0.15 in
(3.81 mm)
5SM
17:53
Overcast
Light Rain
52°F / 11°C 45°F / 7°C 77% 29.68 in
(1005 mb)
SSE 19.6 mph
(SSE 32 kph)
0.01 in
(0.25 mm)
9SM
17:21
Overcast
Light Rain
54°F / 12°C 46°F / 8°C 77% 29.68 in
(1005 mb)
SSE 18.4 mph
(SSE 30 kph)
0.01 in
(0.25 mm)
10SM
16:53
Overcast
Light Rain
54°F / 12°C 46°F / 8°C 77% 29.68 in
(1005 mb)
SSE 15 mph
(SSE 24 kph)
0.00 in
(0.00 mm)
10SM
15:53
Overcast
Light Rain
54°F / 12°C 46°F / 8°C 77% 29.71 in
(1006 mb)
SSE 11.5 mph
(SSE 19 kph)
0.01 in
(0.25 mm)
10SM
15:46
Overcast
Light Rain
54°F / 12°C 46°F / 8°C 77% 29.71 in
(1006 mb)
SSE 12.7 mph
(SSE 20 kph)
0.00 in
(0.00 mm)
10SM
14:53
Overcast
54°F / 12°C 45°F / 7°C 72% 29.71 in
(1006 mb)
SE 16.1 mph
(SE 26 kph)
- 10SM
13:53
Overcast
55°F / 13°C 46°F / 8°C 72% 29.74 in
(1007 mb)
SE 11.5 mph
(SE 19 kph)
0.00 in
(0.00 mm)
8SM
12:53
Overcast
Light Rain
54°F / 12°C 48°F / 9°C 82% 29.74 in
(1007 mb)
SE 8.1 mph
(SE 13 kph)
0.01 in
(0.25 mm)
10SM
11:53
Overcast
Light Rain
52°F / 11°C 48°F / 9°C 88% 29.77 in
(1008 mb)
SE 6.9 mph
(SE 11 kph)
0.04 in
(1.02 mm)
8SM
10:53
Overcast
Light Rain
52°F / 11°C 46°F / 8°C 82% 29.77 in
(1008 mb)
SE 5.8 mph
(SE 9 kph)
0.02 in
(0.51 mm)
8SM
09:53
Overcast
Light Rain
52°F / 11°C 48°F / 9°C 88% 29.8 in
(1009 mb)
Calm 0.03 in
(0.76 mm)
6SM
08:53
Overcast
Light Rain
52°F / 11°C 48°F / 9°C 88% 29.8 in
(1009 mb)
Calm 0.00 in
(0.00 mm)
9SM
08:48
Overcast
Light Rain
52°F / 11°C 48°F / 9°C 88% 29.8 in
(1009 mb)
Calm 0.00 in
(0.00 mm)
9SM
08:11
Overcast
Light Rain
50°F / 10°C 46°F / 8°C 88% 29.8 in
(1009 mb)
SSE 3.5 mph
(SSE 6 kph)
0.00 in
(0.00 mm)
9SM
07:53
Overcast
Light Rain
50°F / 10°C 46°F / 8°C 88% 29.83 in
(1010 mb)
SSE 3.5 mph
(SSE 6 kph)
0.02 in
(0.51 mm)
8SM
06:53
Overcast
Light Rain
50°F / 10°C 46°F / 8°C 88% 29.83 in
(1010 mb)
SSE 3.5 mph
(SSE 6 kph)
0.05 in
(1.27 mm)
6SM
05:53
Overcast
Light Rain
48°F / 9°C 46°F / 8°C 94% 29.83 in
(1010 mb)
SSE 4.6 mph
(SSE 7 kph)
0.03 in
(0.76 mm)
6SM
04:53
Overcast
Light Rain
50°F / 10°C 46°F / 8°C 88% 29.83 in
(1010 mb)
SSE 5.8 mph
(SSE 9 kph)
0.02 in
(0.51 mm)
10SM
03:53
Overcast
Light Rain
52°F / 11°C 45°F / 7°C 77% 29.86 in
(1011 mb)
S 10.4 mph
(S 17 kph)
0.00 in
(0.00 mm)
10SM
02:53
Overcast
50°F / 10°C 46°F / 8°C 88% 29.83 in
(1010 mb)
SSE 9.2 mph
(SSE 15 kph)
0.02 in
(0.51 mm)
10SM
02:30
Overcast
Light Rain
50°F / 10°C 46°F / 8°C 88% 29.83 in
(1010 mb)
SSE 13.8 mph
(SSE 22 kph)
0.01 in
(0.25 mm)
10SM
02:07
Overcast
Light Rain
50°F / 10°C 46°F / 8°C 88% 29.83 in
(1010 mb)
S 16.1 mph
(S 26 kph)
0.01 in
(0.25 mm)
9SM
01:53
Overcast
Light Rain
52°F / 11°C 46°F / 8°C 82% 29.86 in
(1011 mb)
SSE 15 mph
(SSE 24 kph)
0.02 in
(0.51 mm)
10SM
01:42
Overcast
Light Rain
52°F / 11°C 46°F / 8°C 82% 29.83 in
(1010 mb)
SSE 15 mph
(SSE 24 kph)
0.02 in
(0.51 mm)
10SM
00:53
Overcast
Light Rain
52°F / 11°C 46°F / 8°C 82% 29.86 in
(1011 mb)
SSE 15 mph
(SSE 24 kph)
0.04 in
(1.02 mm)
10SM
Time Weather Temperature Dewpoint Humidity Pressure Winds Precip Visibility


Weather for websites

WeatherForYou.com, LLC is not responsible for any damages or problems caused by this service. Current weather conditions are obtained from the closest station including government and personal stations which may have varying degrees of accuracy. Weather forecasts are derived from the NOAA NDFD. Like all things, this site belongs to Jesus Christ... He just trusts me to maintain it. If you have any questions or comments email webmaster@weatherforyou.com

Copyright © 2014, WeatherForYou.com LLC. All rights reserved.